Tracking 31033 objects as of 14-Jul-2025
HD Live streaming from Space Station
objects crossing your sky now

ONEWEB-0245

Track ONEWEB-0245 now!
10-day predictions
ONEWEB-0245 is classified as:


NORAD ID: 48778
Int'l Code: 2021-045M
Perigee: 1,207.4 km
Apogee: 1,210.4 km
Inclination: 87.9 °
Period: 109.5 minutes
Semi major axis: 7579 km
RCS: Unknown
Launch date: May 28, 2021
Source: United Kingdom (UK)
Launch site: VOSTOCHNY COSMODROME (VOSTO)
Your satellite tracking list
Your tracking list is empty




NASA's NSSDC Master Catalog

Two Line Element Set (TLE):
1 48778U 21045M   25195.37195547  .00000082  00000-0  18363-3 0  9993
2 48778  87.9076 326.5477 0001999  92.2140 267.9219 13.15550012199966
Source of the keplerian elements: AFSPC